Weather History for South Lake Tahoe, CA

Change the Weather History Date:

Saturday, April 28, 2012

  Actual Average Record
Temperature  
Mean Temperature 44 °F -  
Max Temperature 59 °F 58 °F 74 °F (2013)
Min Temperature 28 °F 29 °F 7 °F (1970)
Degree Days  
Heating Degree Days 21 22  
Month to date heating degree days 642 696  
Since 1 July heating degree days 6179 6848  
Cooling Degree Days 0 0  
Month to date cooling degree days 0 0  
Year to date cooling degree days 0 0  
Moisture  
Dew Point 29 °F    
Average Humidity 60    
Maximum Humidity 92    
Minimum Humidity 28    
Precipitation  
Precipitation 0.00 in - 2.06 in (1951)
Month to date precipitation 0.93  
Year to date precipitation 9.76  
Sea Level Pressure  
Sea Level Pressure 30.06 in    
Wind  
Wind Speed 3 mph (SSE)    
Max Wind Speed 10 mph    
Max Gust Speed 17 mph    
Visibility 10 miles    
Events      
T = Trace of Precipitation, MM = Missing Value Source: NWS Daily Summary

Daily Weather History Graph

Daily Weather History Graph

Search for Another Location

Airport:

Trip Planner

Search our weather history database for the weather conditions in past years. The results will help you decide how hot, cold, wet, or windy it might be!

Date:

Astronomy

Apr. 28, 2012 Rise Set
Actual Time 6:05 AM PDT 7:50 PM PDT
Civil Twilight 5:36 AM PDT 8:18 PM PDT
Nautical Twilight 5:02 AM PDT 8:53 PM PDT
Astronomical Twilight 4:25 AM PDT 9:30 PM PDT
Moon 11:50 AM PDT (4/28) 1:17 AM PDT (4/28)
Length of Visible Light 14h 42m
Length of Day
13h 45m
Waxing Crescent, 44% of the Moon is Illuminated
Apr 28
Waxing Crescent
Apr 29
First Quarter
May 5
Full
May 12
Last Quarter
May 20
New

Hourly Weather History & Observations

Time (PDT) Temp. Windchill Dew Point Humidity Pressure Visibility Wind Dir Wind Speed Gust Speed Precip Events Conditions
12:53 AM 34.0 °F 31.0 °F 30.0 °F 85% 30.13 in 10.0 mi SW 3.5 mph - N/A   Clear
1:53 AM 32.0 °F 28.7 °F 28.9 °F 88% 30.13 in 10.0 mi SSE 3.5 mph - N/A   Clear
2:53 AM 30.9 °F - 28.0 °F 89% 30.12 in 10.0 mi Calm Calm - N/A   Clear
3:53 AM 28.9 °F 23.9 °F 27.0 °F 92% 30.12 in 10.0 mi South 4.6 mph - N/A   Clear
4:53 AM 30.0 °F 25.2 °F 27.0 °F 88% 30.11 in 10.0 mi SSW 4.6 mph - N/A   Clear
5:53 AM 28.9 °F - 26.1 °F 89% 30.11 in 10.0 mi Calm Calm - N/A   Clear
6:53 AM 28.9 °F - 27.0 °F 92% 30.12 in 10.0 mi Calm Calm - N/A   Clear
7:53 AM 34.0 °F - 30.0 °F 85% 30.11 in 10.0 mi Calm Calm - N/A   Clear
8:53 AM 43.0 °F - 30.9 °F 62% 30.08 in 10.0 mi Calm Calm - N/A   Clear
9:53 AM 48.0 °F - 30.0 °F 50% 30.08 in 10.0 mi Variable 6.9 mph - N/A   Clear
10:53 AM 51.1 °F - 32.0 °F 48% 30.08 in 10.0 mi Calm Calm - N/A   Clear
11:53 AM 51.1 °F - 27.0 °F 39% 30.07 in 10.0 mi NNE 8.1 mph - N/A   Clear
12:53 PM 53.1 °F - 28.0 °F 38% 30.06 in 10.0 mi Variable 6.9 mph - N/A   Clear
1:53 PM 57.0 °F - 28.9 °F 34% 30.03 in 10.0 mi NNE 9.2 mph - N/A   Clear
2:53 PM 57.9 °F - 28.0 °F 32% 30.01 in 10.0 mi NNE 8.1 mph - N/A   Clear
3:53 PM 57.9 °F - 26.1 °F 30% 30.01 in 10.0 mi Variable 5.8 mph - N/A   Clear
4:53 PM 59.0 °F - 26.1 °F 28% 29.99 in 10.0 mi NNE 8.1 mph - N/A   Clear
5:53 PM 57.0 °F - 27.0 °F 32% 30.00 in 10.0 mi Calm Calm - N/A   Clear
6:53 PM 51.1 °F - 34.0 °F 52% 30.01 in 10.0 mi Calm Calm - N/A   Clear
7:53 PM 46.9 °F - 35.1 °F 63% 30.01 in 10.0 mi Calm Calm - N/A   Clear
8:53 PM 42.1 °F - 33.1 °F 70% 30.02 in 10.0 mi Calm Calm - N/A   Clear
9:53 PM 42.1 °F 40.2 °F 33.1 °F 70% 30.02 in 10.0 mi Variable 3.5 mph - N/A   Clear
10:53 PM 39.0 °F 35.7 °F 32.0 °F 76% 30.01 in 10.0 mi SSW 4.6 mph - N/A   Clear
11:53 PM 37.0 °F 34.5 °F 30.9 °F 79% 30.01 in 10.0 mi South 3.5 mph - N/A   Clear